N5AJY Weather Reports


time (UTC)temp
C
wind
direction
speed
KPH
gust
KPH
rain 1hr
cm
rain 24hr
cm
rain mn
cm
humidity
%
barometer
mb
20260510105154 16 0 0.0 0.0 0.00 0.00 0.00 86 1009.3
20260510104652 16 0 0.0 0.0 0.00 0.00 0.00 86 1009.3
20260510103652 16 0 0.0 0.0 0.00 0.00 0.00 86 1009.2
20260510103154 16 0 0.0 0.0 0.00 0.00 0.00 86 1009.3
20260510102653 16 0 0.0 0.0 0.00 0.00 0.00 86 1009.4
20260510102155 15 0 0.0 0.0 0.00 0.00 0.00 86 1009.3
20260510101653 16 0 0.0 0.0 0.00 0.00 0.00 86 1009.2
20260510101154 16 0 0.0 0.0 0.00 0.00 0.00 86 1009.0
20260510100154 16 0 0.0 0.0 0.00 0.00 0.00 84 1009.0
20260510095154 16 0 0.0 0.0 0.00 0.00 0.00 82 1008.9
20260510094653 16 0 0.0 0.0 0.00 0.00 0.00 81 1008.9
20260510094153 17 0 0.0 0.0 0.00 0.00 0.00 81 1008.8
20260510093654 17 0 0.0 0.0 0.00 0.00 0.00 79 1008.8
20260510093152 17 0 0.0 0.0 0.00 0.00 0.00 79 1008.9
20260510092654 17 0 0.0 0.0 0.00 0.00 0.00 78 1008.9
20260510092153 17 0 0.0 0.0 0.00 0.00 0.00 78 1008.8
20260510091654 17 0 0.0 0.0 0.00 0.00 0.00 77 1008.5
20260510091155 17 0 0.0 0.0 0.00 0.00 0.00 77 1008.2
20260510090654 18 0 0.0 0.0 0.00 0.00 0.00 76 1008.0
20260510090153 18 0 0.0 0.0 0.00 0.00 0.00 75 1007.9
20260510085153 18 0 0.0 0.0 0.00 0.00 0.00 75 1007.6
20260510084654 18 0 0.0 0.0 0.00 0.00 0.00 75 1007.6
20260510083654 18 0 0.0 0.0 0.00 0.00 0.00 74 1007.3
20260510083153 18 0 0.0 0.0 0.00 0.00 0.00 74 1007.3
20260510082654 18 0 0.0 0.0 0.00 0.00 0.00 73 1007.4
20260510082153 18 0 0.0 0.0 0.00 0.00 0.00 73 1007.4
20260510081655 18 0 0.0 0.0 0.00 0.00 0.00 73 1007.3
20260510081153 18 0 0.0 0.0 0.00 0.00 0.00 74 1007.3
20260510080654 18 0 0.0 0.0 0.00 0.00 0.00 74 1007.3
20260510080153 18 0 0.0 0.0 0.00 0.00 0.00 74 1007.4
20260510075154 18 0 0.0 0.0 0.00 0.00 0.00 75 1007.1
20260510074653 18 0 0.0 0.0 0.00 0.00 0.00 75 1006.5
20260510074154 18 0 0.0 0.0 0.00 0.00 0.00 75 1006.8
20260510073653 18 0 0.0 0.0 0.00 0.00 0.00 75 1007.6
20260510073154 18 0 0.0 0.0 0.00 0.00 0.00 74 1007.8
20260510072654 18 0 0.0 0.0 0.00 0.00 0.00 75 1007.8
20260510072154 18 0 0.0 0.0 0.00 0.00 0.00 76 1007.1
20260510071653 18 0 0.0 0.0 0.00 0.00 0.00 74 1006.2
20260510071154 18 0 0.0 0.0 0.00 0.00 0.00 73 1006.2
20260510070654 18 0 0.0 0.0 0.00 0.00 0.00 71 1006.8
20260510070153 18 0 0.0 0.0 0.00 0.00 0.00 72 1007.3
20260510065153 17 0 0.0 0.0 0.00 0.00 0.00 75 1007.8
20260510064654 17 0 0.0 0.0 0.00 0.00 0.00 77 1008.1
20260510064153 17 0 0.0 0.0 0.00 0.00 0.00 78 1008.2
20260510063657 17 0 0.0 0.0 0.00 0.00 0.00 78 1008.3
20260510063153 17 0 0.0 0.0 0.00 0.00 0.00 77 1008.4
20260510062654 18 0 0.0 0.0 0.00 0.00 0.00 77 1008.5
20260510062153 18 0 0.0 0.0 0.00 0.00 0.00 77 1008.6
20260510061653 18 0 0.0 0.0 0.00 0.00 0.00 76 1008.8
20260510061154 18 0 0.0 0.0 0.00 0.00 0.00 75 1009.0
20260510060653 18 0 0.0 0.0 0.00 0.00 0.00 75 1009.2
20260510060154 18 0 0.0 0.0 0.00 0.00 0.00 73 1009.4
20260510055653 18 0 0.0 0.0 0.00 0.00 0.00 72 1009.4
20260510055154 18 0 0.0 0.0 0.00 0.00 0.00 72 1009.4
20260510054654 18 0 0.0 0.0 0.00 0.00 0.00 72 1009.3
20260510054154 19 0 0.0 0.0 0.00 0.00 0.00 72 1009.4
20260510053700 19 0 0.0 0.0 0.00 0.00 0.00 70 1009.5
20260510053154 19 0 0.0 0.0 0.00 0.00 0.00 70 1009.4
20260510052655 19 0 0.0 0.0 0.00 0.00 0.00 69 1009.4
20260510052153 19 0 0.0 0.0 0.00 0.00 0.00 69 1009.3
20260510051654 19 0 0.0 0.0 0.00 0.00 0.00 68 1009.4
20260510051155 19 0 0.0 0.0 0.00 0.00 0.00 67 1009.3
20260510050153 20 0 0.0 0.0 0.00 0.00 0.00 68 1008.9
20260510045158 20 0 0.0 0.0 0.00 0.00 0.00 66 1008.9
20260510044654 20 0 0.0 0.0 0.00 0.00 0.00 66 1008.7
20260510043653 19 0 0.0 0.0 0.00 0.00 0.00 66 1008.2
20260510043153 19 0 0.0 0.0 0.00 0.00 0.00 68 1008.1
20260510042657 19 0 0.0 0.0 0.00 0.00 0.00 67 1008.0
20260510042153 19 0 0.0 0.0 0.00 0.00 0.00 67 1007.9
20260510041654 19 0 0.0 0.0 0.00 0.00 0.00 68 1007.8
20260510041153 18 0 0.0 0.0 0.00 0.00 0.00 69 1007.7
20260510040653 18 0 0.0 0.0 0.00 0.00 0.00 72 1007.5
20260510035657 18 0 0.0 0.0 0.00 0.00 0.00 71 1007.6
20260510035154 18 0 0.0 0.0 0.00 0.00 0.00 70 1007.6
20260510034653 18 0 0.0 0.0 0.00 0.00 0.00 73 1007.6
20260510034154 18 0 0.0 0.0 0.00 0.00 0.00 71 1007.6
20260510033653 18 0 0.0 0.0 0.00 0.00 0.00 71 1007.6
20260510033154 18 0 0.0 0.0 0.00 0.00 0.00 70 1007.7
20260510032653 18 0 0.0 0.0 0.00 0.00 0.00 72 1007.8
20260510032153 18 0 0.0 0.0 0.00 0.00 0.00 72 1007.9
20260510031654 19 0 0.0 0.0 0.00 0.00 0.00 71 1007.9
20260510031153 18 0 0.0 0.0 0.00 0.00 0.00 69 1007.9
20260510030654 18 0 0.0 0.0 0.00 0.00 0.00 69 1007.8
20260510030153 18 0 0.0 0.0 0.00 0.00 0.00 71 1007.8
20260510025654 19 0 0.0 0.0 0.00 0.00 0.00 69 1007.6
20260510025153 19 0 0.0 0.0 0.00 0.00 0.00 70 1007.3
20260510024654 19 0 0.0 0.0 0.00 0.00 0.00 68 1007.1
20260510024153 20 0 0.0 0.0 0.00 0.00 0.00 68 1006.9
20260510023654 20 0 0.0 0.0 0.00 0.00 0.00 68 1006.6
20260510023153 20 0 0.0 0.0 0.00 0.00 0.00 66 1006.4
20260510022652 19 0 0.0 0.0 0.00 0.00 0.00 68 1006.2
20260510022153 20 0 0.0 0.0 0.00 0.00 0.00 68 1006.2
20260510021654 20 0 0.0 0.0 0.00 0.00 0.00 68 1006.2
20260510021153 20 0 0.0 0.0 0.00 0.00 0.00 66 1006.0
20260510020653 20 0 0.0 0.0 0.00 0.00 0.00 66 1006.0
20260510020154 20 0 0.0 0.0 0.00 0.00 0.00 67 1005.8
20260510015706 20 0 0.0 0.0 0.00 0.00 0.00 68 1005.7
20260510015154 20 0 0.0 0.0 0.00 0.00 0.00 67 1005.7
20260510014653 21 0 0.0 0.0 0.00 0.00 0.00 66 1005.5
20260510014154 21 0 0.0 0.0 0.00 0.00 0.00 65 1005.4
20260510013654 21 0 0.0 0.0 0.00 0.00 0.00 63 1005.3
20260510013153 21 0 0.0 0.0 0.00 0.00 0.00 61 1005.3
20260510012654 21 0 0.0 0.0 0.00 0.00 0.00 61 1005.2
20260510012156 22 0 0.0 0.0 0.00 0.00 0.00 60 1005.1
20260510011652 22 0 0.0 0.0 0.00 0.00 0.00 58 1005.1
20260510011153 22 0 0.0 0.0 0.00 0.00 0.00 57 1005.0
20260510010652 23 0 0.0 0.0 0.00 0.00 0.00 57 1005.0
20260510010155 23 0 0.0 0.0 0.00 0.00 0.00 55 1004.9
20260510005154 24 0 0.0 0.0 0.00 0.00 0.00 51 1004.8
20260510004653 25 0 0.0 0.0 0.00 0.00 0.00 49 1004.7
20260510004154 25 0 0.0 0.0 0.00 0.00 0.00 47 1004.6
20260510003653 26 0 0.0 0.0 0.00 0.00 0.00 47 1004.7
20260510003154 26 0 0.0 0.0 0.00 0.00 0.00 46 1004.7
20260510002654 26 0 0.0 0.0 0.00 0.00 0.00 45 1004.6
20260510002154 26 0 0.0 0.0 0.00 0.00 0.00 44 1004.7
20260510001654 27 0 0.0 0.0 0.00 0.00 0.00 43 1004.6
20260510000653 27 0 0.0 0.0 0.00 0.00 0.00 41 1004.7
20260510000154 27 0 0.0 0.0 0.00 0.00 0.00 40 1004.6
20260509235155 28 0 0.0 0.0 0.00 0.00 0.00 37 1004.8
20260509234653 28 0 0.0 0.0 0.00 0.00 0.00 38 1004.7
20260509234154 28 0 0.0 0.0 0.00 0.00 0.00 39 1004.7
20260509233653 28 0 0.0 0.0 0.00 0.00 0.00 37 1004.8
20260509233152 28 0 0.0 0.0 0.00 0.00 0.00 36 1004.8
20260509232654 28 0 0.0 0.0 0.00 0.00 0.00 36 1004.8
20260509232154 28 0 0.0 0.0 0.00 0.00 0.00 37 1004.8
20260509231654 28 0 0.0 0.0 0.00 0.00 0.00 37 1004.8
20260509231153 28 0 0.0 0.0 0.00 0.00 0.00 39 1004.9
20260509230654 28 0 0.0 0.0 0.00 0.00 0.00 40 1004.9
20260509230153 28 0 0.0 0.0 0.00 0.00 0.00 41 1004.9
20260509225153 27 0 0.0 0.0 0.00 0.00 0.00 39 1005.0
20260509224655 28 0 0.0 0.0 0.00 0.00 0.00 40 1005.1
20260509224153 27 0 0.0 0.0 0.00 0.00 0.00 41 1005.2
20260509223652 27 0 0.0 0.0 0.00 0.00 0.00 40 1005.2
20260509223154 27 0 0.0 0.0 0.00 0.00 0.00 38 1005.2
20260509222653 28 0 0.0 0.0 0.00 0.00 0.00 37 1005.3
20260509222154 28 0 0.0 0.0 0.00 0.00 0.00 35 1005.3
20260509221653 28 0 0.0 0.0 0.00 0.00 0.00 35 1005.2
20260509221154 27 0 0.0 0.0 0.00 0.00 0.00 34 1005.3
20260509220653 27 0 0.0 0.0 0.00 0.00 0.00 34 1005.3
20260509220155 27 0 0.0 0.0 0.00 0.00 0.00 34 1005.3
20260509215154 27 0 0.0 0.0 0.00 0.00 0.00 34 1005.3
20260509214654 28 0 0.0 0.0 0.00 0.00 0.00 31 1005.4
20260509214154 28 0 0.0 0.0 0.00 0.00 0.00 28 1005.5
20260509213654 28 0 0.0 0.0 0.00 0.00 0.00 32 1005.4
20260509213153 28 0 0.0 0.0 0.00 0.00 0.00 35 1005.5
20260509212654 28 0 0.0 0.0 0.00 0.00 0.00 37 1005.6
20260509212153 29 0 0.0 0.0 0.00 0.00 0.00 36 1005.8
20260509211654 29 0 0.0 0.0 0.00 0.00 0.00 36 1005.8
20260509211153 29 0 0.0 0.0 0.00 0.00 0.00 34 1005.8
20260509210654 30 0 0.0 0.0 0.00 0.00 0.00 29 1005.9
20260509210154 30 0 0.0 0.0 0.00 0.00 0.00 31 1005.9
20260509205657 29 0 0.0 0.0 0.00 0.00 0.00 31 1005.8
20260509205154 29 0 0.0 0.0 0.00 0.00 0.00 35 1005.9
20260509204654 29 0 0.0 0.0 0.00 0.00 0.00 33 1005.9
20260509204153 29 0 0.0 0.0 0.00 0.00 0.00 35 1006.0
20260509203653 29 0 0.0 0.0 0.00 0.00 0.00 34 1006.0
20260509203153 29 0 0.0 0.0 0.00 0.00 0.00 36 1006.1
20260509202654 29 0 0.0 0.0 0.00 0.00 0.00 34 1006.2
20260509202154 28 0 0.0 0.0 0.00 0.00 0.00 35 1006.3
20260509201654 29 0 0.0 0.0 0.00 0.00 0.00 35 1006.3
20260509201155 30 0 0.0 0.0 0.00 0.00 0.00 35 1006.4
20260509200654 30 0 0.0 0.0 0.00 0.00 0.00 34 1006.4
20260509200154 30 0 0.0 0.0 0.00 0.00 0.00 35 1006.5
20260509195701 30 0 0.0 0.0 0.00 0.00 0.00 34 1006.6
20260509195154 30 0 0.0 0.0 0.00 0.00 0.00 35 1006.6
20260509194654 30 0 0.0 0.0 0.00 0.00 0.00 34 1006.7
20260509194154 30 0 0.0 0.0 0.00 0.00 0.00 32 1006.6
20260509193654 30 0 0.0 0.0 0.00 0.00 0.00 35 1006.7
20260509193153 29 0 0.0 0.0 0.00 0.00 0.00 33 1006.8
20260509192654 30 0 0.0 0.0 0.00 0.00 0.00 33 1006.7
20260509192154 29 0 0.0 0.0 0.00 0.00 0.00 33 1006.7
20260509191654 29 0 0.0 0.0 0.00 0.00 0.00 37 1006.7
20260509191155 28 0 0.0 0.0 0.00 0.00 0.00 36 1006.7
20260509190155 28 0 0.0 0.0 0.00 0.00 0.00 39 1006.8
20260509185153 30 0 0.0 0.0 0.00 0.00 0.00 39 1006.9
20260509184655 29 0 0.0 0.0 0.00 0.00 0.00 37 1006.9
20260509184157 29 0 0.0 0.0 0.00 0.00 0.00 43 1007.0
20260509183653 29 0 0.0 0.0 0.00 0.00 0.00 44 1007.0
20260509183154 30 0 0.0 0.0 0.00 0.00 0.00 43 1007.2
20260509182653 29 0 0.0 0.0 0.00 0.00 0.00 41 1007.1
20260509182153 28 0 0.0 0.0 0.00 0.00 0.00 44 1007.2
20260509181654 28 0 0.0 0.0 0.00 0.00 0.00 49 1007.3
20260509181153 27 0 0.0 0.0 0.00 0.00 0.00 47 1007.3
20260509175659 26 0 0.0 0.0 0.00 0.00 0.00 57 1007.3
20260509175153 25 0 0.0 0.0 0.00 0.00 0.00 63 1007.4
20260509174652 25 0 0.0 0.0 0.00 0.00 0.00 61 1007.4
20260509174154 25 0 0.0 0.0 0.00 0.00 0.00 70 1007.5
20260509173654 25 0 0.0 0.0 0.00 0.00 0.00 76 1007.6
20260509173153 23 0 0.0 0.0 0.00 0.00 0.00 78 1007.6
20260509172653 23 0 0.0 0.0 0.00 0.00 0.00 83 1007.7
20260509172154 23 0 0.0 0.0 0.00 0.00 0.00 86 1007.8
20260509171653 23 0 0.0 0.0 0.00 0.00 0.00 91 1007.9
20260509171154 22 0 0.0 0.0 0.00 0.00 0.00 91 1007.9
20260509170654 22 0 0.0 0.0 0.00 0.00 0.00 95 1007.9
20260509170153 21 0 0.0 0.0 0.00 0.00 0.00 95 1007.9
20260509165153 21 0 0.0 0.0 0.00 0.00 0.00 96 1008.0
20260509164655 21 0 0.0 0.0 0.00 0.00 0.00 96 1008.0
20260509164153 20 0 0.0 0.0 0.00 0.00 0.00 96 1008.0
20260509163656 20 0 0.0 0.0 0.00 0.00 0.00 96 1008.0
20260509163154 20 0 0.0 0.0 0.00 0.00 0.00 96 1007.9
20260509161152 20 0 0.0 0.0 0.00 0.00 0.00 96 1008.0
20260509160658 20 0 0.0 0.0 0.00 0.00 0.00 96 1007.9
20260509155655 19 0 0.0 0.0 0.00 0.00 0.00 97 1007.9
20260509153656 17 0 0.0 0.0 0.00 0.00 0.00 97 1007.9
20260509150656 16 0 0.0 0.0 0.00 0.00 0.00 98 1008.0
20260509144658 16 0 0.0 0.0 0.00 0.00 0.00 98 1008.0
20260509143155 15 0 0.0 0.0 0.00 0.00 0.00 98 1007.8
20260509140655 15 0 0.0 0.0 0.00 0.00 0.00 98 1007.5
20260509134155 13 0 0.0 0.0 0.00 0.00 0.00 98 1007.5
20260509131657 13 0 0.0 0.0 0.00 0.00 0.00 98 1007.0
20260509131156 12 0 0.0 0.0 0.00 0.00 0.00 98 1006.9
20260509124155 11 0 0.0 0.0 0.00 0.00 0.00 98 1007.0
20260509123654 11 0 0.0 0.0 0.00 0.00 0.00 98 1007.0
20260509122157 11 0 0.0 0.0 0.00 0.00 0.00 98 1006.7
20260509120654 10 0 0.0 0.0 0.00 0.00 0.00 100 1006.6
20260509114656 10 0 0.0 0.0 0.00 0.00 0.00 100 1006.5
20260509112655 10 0 0.0 0.0 0.00 0.00 0.00 100 1006.3
20260509111653 10 0 0.0 0.0 0.00 0.00 0.00 100 1006.2
20260509111154 10 0 0.0 0.0 0.00 0.00 0.00 100 1006.1
20260509110656 10 0 0.0 0.0 0.00 0.00 0.00 100 1006.2
20260509105701 10 0 0.0 0.0 0.00 0.00 0.00 100 1006.2